1537524001.05,62108,21.31,74296.8,18.41,-14.89,-15.21,0,*4F
1537524002.3,62109,21.31,74296.3,18.37,-15.43,-15.99,0,*4B
1537524003.58,62110,21.31,74298.0,18.37,-14.79,-15.21,0,*48
1537524004.83,62111,21.38,74298.5,18.37,-16.27,-16.89,0,*41
1537524006.08,62112,21.31,74294.5,18.35,-16.45,-17.03,0,*47
1537524007.37,62113,21.31,74296.8,18.37,-15.39,-16.09,0,*47
1537524008.59,62114,21.31,74296.8,18.33,-17.55,-18.17,0,*4D
1537524009.81,62115,21.31,74296.0,18.33,-16.93,-17.55,0,*4E
1537524011.05,62116,21.31,74296.8,18.29,-17.35,-17.97,0,*45
1537524012.27,62117,21.31,74296.5,18.29,-17.31,-17.93,0,*44
1537524013.47,62118,21.31,74294.8,18.25,-18.07,-18.79,0,*46
1537524014.71,62119,21.31,74296.5,18.25,-16.59,-17.21,0,*40
1537524015.96,62120,21.31,74296.0,18.23,-17.55,-18.17,0,*4B
1537524017.22,62121,21.31,74292.0,18.19,-16.41,-17.03,0,*4D
1537524018.49,62122,21.31,74298.8,18.19,-16.41,-17.11,0,*4D
1537524019.75,62123,21.31,74294.0,18.19,-16.55,-17.17,0,*4F
1537524021.0,62124,21.31,74296.5,18.19,-15.81,-16.41,0,*40
1537524022.29,62125,21.31,74294.3,18.19,-15.35,-15.85,0,*45
1537524023.52,62126,21.31,74292.3,18.19,-14.65,-15.07,0,*48
1537524024.8,62127,21.31,74298.3,18.23,-15.35,-16.09,0,*49
1537524026.0,62128,21.31,74294.8,18.21,-15.49,-15.99,0,*45
1537524027.2,62129,21.31,74294.3,18.21,-15.99,-16.55,0,*4A
1537524028.46,62130,21.31,74296.5,18.19,-16.37,-17.11,0,*4F
1537524029.73,62131,21.31,74296.0,18.19,-16.41,-17.11,0,*4F
1537524030.99,62132,21.31,74298.3,18.19,-16.23,-16.75,0,*4B
1537524032.22,62133,21.31,74294.5,18.19,-15.71,-16.41,0,*49
1537524033.45,62134,21.31,74294.8,18.17,-15.67,-16.27,0,*47
1537524034.69,62135,21.31,74296.0,18.13,-14.89,-15.43,0,*42
1537524035.89,62136,21.31,74294.3,18.17,-14.69,-15.15,0,*48
1537524037.1,62137,21.31,74294.3,18.17,-13.93,-14.37,0,*4A
1537524038.32,62138,21.31,74296.3,18.19,-13.65,-14.11,0,*46
1537524039.55,62139,21.31,74294.3,18.21,-13.93,-14.47,0,*46
1537524040.79,62140,21.31,74296.0,18.21,-13.97,-14.65,0,*4C
1537524042.08,62141,21.31,74292.8,18.23,-14.01,-14.55,0,*44
1537524043.3,62142,21.31,74294.5,18.25,-14.15,-14.89,0,*45
1537524044.54,62143,21.31,74294.8,18.25,-15.39,-15.99,0,*4B
1537524045.78,62144,21.31,74296.8,18.25,-14.75,-15.29,0,*4E
1537524047.01,62145,21.38,74296.5,18.25,-15.29,-15.89,0,*4D
1537524048.25,62146,21.31,74294.3,18.25,-14.11,-14.55,0,*44
1537524049.47,62147,21.31,74292.8,18.25,-13.55,-14.15,0,*46
1537524050.73,62148,21.31,74294.3,18.27,-14.23,-14.79,0,*47
1537524051.93,62149,21.31,74296.8,18.29,-14.61,-15.11,0,*41
1537524053.14,62150,21.38,74298.8,18.29,-14.19,-14.61,0,*40
1537524054.34,62151,21.31,74296.8,18.29,-14.65,-15.11,0,*4C
1537524055.59,62152,21.31,74294.5,18.29,-14.79,-15.35,0,*44
1537524056.82,62153,21.31,74294.5,18.31,-13.73,-14.19,0,*4E
1537524058.04,62154,21.31,74298.0,18.31,-13.73,-14.19,0,*49
1537524059.31,62155,21.31,74296.0,18.33,-14.05,-14.47,0,*47
1537524060.54,62156,21.31,74292.8,18.31,-14.15,-14.61,0,*43
1537524061.74,62157,21.31,74294.5,18.33,-13.47,-13.93,0,*4A
1537524062.97,62158,21.31,74292.0,18.33,-14.29,-14.79,0,*49
1537524064.22,62159,21.31,74296.8,18.37,-14.33,-14.83,0,*42
1537524065.47,62160,21.31,74294.8,18.37,-12.93,-13.37,0,*4C
1537524066.73,62161,21.31,74292.5,18.41,-12.65,-13.15,0,*45
1537524068.0,62162,21.31,74290.5,18.41,-13.87,-14.43,0,*4F
1537524069.19,62163,21.31,74294.3,18.43,-13.07,-13.47,0,*47
1537524070.44,62164,21.31,74292.3,18.41,-12.61,-13.15,0,*44
1537524071.67,62165,21.31,74292.0,18.47,-12.53,-13.07,0,*41
1537524072.89,62166,21.31,74294.5,18.47,-12.53,-12.93,0,*4E
1537524074.12,62167,21.31,74294.5,18.47,-12.53,-12.93,0,*4F
1537524075.32,62168,21.31,74294.8,18.51,-13.07,-13.51,0,*48
1537524076.6,62169,21.31,74292.5,18.49,-13.37,-13.83,0,*4C
1537524077.82,62170,21.31,74294.3,18.51,-14.89,-15.21,0,*41
1537524079.08,62171,21.31,74292.3,18.49,-14.51,-15.11,0,*4F
1537524080.33,62172,21.31,74292.0,18.49,-13.79,-14.23,0,*41
1537524081.59,62173,21.31,74296.5,18.47,-14.05,-14.51,0,*47
1537524082.85,62174,21.31,74294.0,18.49,-13.83,-14.33,0,*43
1537524084.06,62175,21.31,74294.5,18.47,-13.47,-13.83,0,*48
1537524085.32,62176,21.31,74294.3,18.49,-12.93,-13.33,0,*46
1537524086.55,62177,21.31,74292.5,18.51,-12.75,-13.19,0,*4E
1537524087.8,62178,21.31,74294.0,18.49,-13.33,-13.55,0,*43
1537524089.07,62179,21.31,74294.3,18.51,-14.01,-14.47,0,*49
1537524090.32,62180,21.31,74292.3,18.53,-14.29,-14.75,0,*46
1537524091.57,62181,21.31,74294.3,18.53,-14.97,-15.49,0,*4C
1537524092.81,62182,21.31,74290.8,18.51,-14.75,-15.21,0,*4F
1537524094.06,62183,21.31,74292.3,18.53,-15.11,-15.57,0,*4E
1537524095.31,62184,21.31,74290.3,18.51,-15.81,-16.27,0,*46
1537524096.51,62185,21.31,74290.5,18.47,-15.95,-16.41,0,*45
1537524097.76,62186,21.31,74294.0,18.45,-16.37,-17.03,0,*48
1537524099.01,62187,21.38,74298.0,18.45,-16.79,-17.21,0,*43
1537524100.29,62188,21.31,74292.5,18.41,-16.17,-16.65,0,*41
1537524101.53,62189,21.31,74298.3,18.41,-17.31,-17.83,0,*4C
1537524102.78,62190,21.31,74294.8,18.37,-17.03,-17.49,0,*42
1537524104.03,62191,21.31,74298.8,18.35,-16.31,-16.75,0,*4F
1537524105.24,62192,21.31,74294.5,18.33,-16.83,-17.35,0,*46
1537524106.49,62193,21.31,74296.0,18.31,-16.83,-17.25,0,*44
1537524107.74,62194,21.31,74298.0,18.31,-16.51,-16.97,0,*44
1537524108.99,62195,21.31,74296.5,18.31,-15.89,-16.45,0,*4C
1537524110.18,62196,21.31,74294.8,18.29,-14.69,-15.07,0,*4C
1537524111.39,62197,21.31,74298.5,18.29,-14.23,-14.37,0,*41
1537524112.62,62198,21.31,74298.3,18.33,-13.79,-14.15,0,*4D
1537524113.88,62199,21.31,74296.3,18.31,-13.69,-14.01,0,*4A
1537524115.08,62200,21.31,74296.8,18.33,-13.93,-14.33,0,*4F
1537524116.28,62201,21.31,74296.8,18.33,-15.53,-15.95,0,*49
1537524117.54,62202,21.38,74300.0,18.31,-15.29,-15.81,0,*40
1537524118.74,62203,21.31,74296.0,18.33,-15.49,-15.95,0,*40
1537524119.99,62204,21.31,74292.8,18.33,-15.01,-15.43,0,*40
1537524121.22,62205,21.31,74294.5,18.33,-13.73,-14.01,0,*45
1537524122.47,62206,21.31,74296.0,18.35,-13.29,-13.65,0,*4A
1537524123.69,62207,21.31,74298.0,18.37,-13.47,-13.69,0,*4D
1537524124.97,62208,21.31,74296.0,18.35,-15.39,-15.85,0,*4B
1537524126.22,62209,21.31,74296.5,18.35,-16.31,-16.79,0,*41
1537524127.5,62210,21.31,74296.8,18.35,-15.85,-16.27,0,*4E
1537524128.75,62211,21.31,74294.8,18.33,-15.81,-16.23,0,*49
1537524130.0,62212,21.31,74296.3,18.31,-14.89,-15.35,0,*45
1537524131.26,62213,21.31,74298.5,18.33,-14.47,-14.79,0,*4D
1537524132.52,62214,21.31,74298.8,18.33,-14.43,-14.79,0,*4E
1537524133.79,62215,21.31,74298.3,18.31,-15.01,-15.43,0,*42
1537524135.02,62216,21.31,74296.0,18.33,-15.35,-15.75,0,*41
1537524136.22,62217,21.31,74298.5,18.33,-15.75,-16.37,0,*41
1537524137.46,62218,21.31,74298.5,18.33,-15.53,-16.17,0,*48
1537524138.71,62219,21.31,74296.3,18.31,-16.31,-16.83,0,*41
1537524139.98,62220,21.31,74298.3,18.31,-16.65,-17.21,0,*43
1537524141.27,62221,21.31,74296.5,18.31,-16.65,-17.07,0,*46
1537524142.53,62222,21.31,74294.8,18.27,-16.89,-17.41,0,*42
1537524143.79,62223,21.31,74296.3,18.27,-16.27,-16.75,0,*41
1537524145.01,62224,21.31,74296.5,18.27,-15.99,-16.41,0,*47
1537524146.29,62225,21.31,74298.3,18.27,-15.85,-16.23,0,*4F
1537524147.51,62226,21.31,74294.0,18.25,-16.89,-17.35,0,*47
1537524148.72,62227,21.31,74294.0,18.25,-15.75,-16.41,0,*44
1537524149.96,62228,21.31,74292.3,18.23,-15.15,-15.49,0,*40
1537524151.15,62229,21.31,74294.3,18.25,-15.99,-16.45,0,*4C
1537524152.41,62230,21.31,74294.5,18.23,-15.63,-16.17,0,*40
1537524153.62,62231,21.31,74292.3,18.25,-15.25,-15.63,0,*45
1537524154.86,62232,21.31,74294.3,18.25,-15.29,-15.85,0,*42
1537524156.09,62233,21.31,74292.0,18.25,-14.65,-14.83,0,*4D
1537524157.32,62234,21.31,74294.0,18.29,-14.79,-15.11,0,*41
1537524158.55,62235,21.31,74292.3,18.29,-14.47,-14.69,0,*43
1537524159.78,62236,21.31,74294.5,18.29,-14.61,-14.93,0,*41
1537524161.0,62237,21.31,74292.3,18.33,-13.55,-13.79,0,*48
1537524162.23,62238,21.31,74294.0,18.33,-13.69,-14.05,0,*44
1537524163.45,62239,21.31,74290.5,18.35,-13.23,-13.43,0,*48
1537524164.71,62240,21.31,74294.0,18.35,-13.73,-14.01,0,*42
1537524165.93,62241,21.38,74296.3,18.37,-13.69,-13.93,0,*46
1537524167.2,62242,21.38,74294.0,18.41,-13.01,-13.19,0,*48
1537524168.42,62243,21.31,74294.3,18.43,-13.29,-13.55,0,*49
1537524169.62,62244,21.31,74294.3,18.43,-13.19,-13.47,0,*4E
1537524170.87,62245,21.31,74290.8,18.45,-13.55,-13.87,0,*4D
1537524172.08,62246,21.38,74294.8,18.47,-13.11,-13.37,0,*47
1537524173.27,62247,21.31,74290.5,18.47,-13.11,-13.47,0,*41
1537524174.53,62248,21.31,74288.8,18.49,-12.97,-13.33,0,*4C
1537524175.72,62249,21.31,74290.0,18.51,-13.15,-13.43,0,*48
1537524176.94,62250,21.31,74294.0,18.55,-12.89,-13.29,0,*4C
1537524178.17,62251,21.31,74288.8,18.55,-12.71,-13.11,0,*41
1537524179.39,62252,21.38,74294.0,18.55,-13.43,-13.83,0,*49
1537524180.67,62253,21.31,74292.3,18.57,-13.97,-14.43,0,*48
1537524181.94,62254,21.31,74292.5,18.57,-14.23,-14.55,0,*40
1537524183.2,62255,21.31,74290.3,18.63,-14.01,-14.47,0,*45
1537524184.39,62256,21.31,74290.3,18.59,-15.11,-15.67,0,*4C
1537524185.62,62257,21.31,74292.5,18.57,-14.19,-14.69,0,*45
1537524186.85,62258,21.31,74294.3,18.57,-13.69,-14.11,0,*45
1537524188.07,62259,21.31,74294.8,18.63,-14.69,-15.21,0,*46
1537524189.27,62260,21.31,74292.8,18.63,-14.61,-14.89,0,*47
1537524190.5,62261,21.31,74292.3,18.63,-13.69,-14.01,0,*49
1537524191.71,62262,21.31,74294.3,18.63,-12.83,-13.15,0,*4D
1537524192.94,62263,21.31,74294.0,18.63,-13.01,-13.23,0,*42
1537524194.2,62264,21.31,74290.3,18.65,-13.01,-13.23,0,*43
1537524195.41,62265,21.31,74292.0,18.67,-12.83,-13.07,0,*4D
1537524196.67,62266,21.31,74290.8,18.69,-12.71,-12.83,0,*40
1537524197.88,62267,21.31,74290.0,18.69,-12.25,-12.43,0,*4C
1537524199.14,62268,21.31,74288.3,18.73,-12.35,-12.57,0,*4C
1537524200.37,62269,21.31,74292.3,18.73,-12.89,-13.01,0,*48
1537524201.59,62270,21.31,74292.5,18.75,-13.15,-13.43,0,*44
1537524202.87,62271,21.31,74294.5,18.75,-13.33,-13.61,0,*41
1537524204.1,62272,21.31,74290.0,18.77,-13.97,-14.11,0,*4E
1537524205.31,62273,21.31,74292.0,18.77,-13.51,-13.69,0,*4D
1537524206.52,62274,21.31,74290.0,18.77,-13.51,-13.69,0,*4A
1537524207.73,62275,21.31,74290.0,18.77,-15.15,-15.53,0,*42
1537524208.97,62276,21.31,74288.8,18.77,-15.53,-15.85,0,*48
1537524210.23,62277,21.31,74288.5,18.77,-15.85,-16.17,0,*4A
1537524211.5,62278,21.38,74288.3,18.75,-15.21,-15.57,0,*4E
1537524212.76,62279,21.31,74290.5,18.75,-15.07,-15.43,0,*4E
1537524213.99,62280,21.31,74290.5,18.71,-14.33,-14.61,0,*4B
1537524215.22,62281,21.31,74290.5,18.73,-14.29,-14.43,0,*43
1537524216.46,62282,21.31,74294.8,18.73,-13.97,-14.15,0,*41
1537524217.72,62283,21.31,74288.8,18.73,-13.29,-13.33,0,*46
1537524218.92,62284,21.31,74290.5,18.77,-13.15,-13.23,0,*4B
1537524220.15,62285,21.31,74294.0,18.75,-13.55,-13.73,0,*49
1537524221.42,62286,21.31,74288.3,18.75,-13.61,-13.87,0,*46
1537524222.65,62287,21.31,74288.8,18.77,-13.79,-13.93,0,*49
1537524223.86,62288,21.31,74288.3,18.77,-14.37,-14.65,0,*45
1537524225.1,62289,21.31,74294.3,18.77,-14.23,-14.51,0,*46
1537524226.31,62290,21.31,74290.8,18.77,-14.11,-14.37,0,*4F
1537524227.57,62291,21.31,74290.3,18.77,-15.01,-15.43,0,*4C
1537524228.77,62292,21.31,74292.3,18.77,-16.79,-17.31,0,*44
1537524230.01,62293,21.31,74292.3,18.75,-16.59,-16.83,0,*4D
1537524231.24,62294,21.31,74292.3,18.75,-16.75,-16.97,0,*41
1537524232.49,62295,21.31,74288.8,18.71,-15.67,-15.89,0,*48
1537524233.75,62296,21.31,74290.5,18.71,-16.13,-16.41,0,*4C
1537524235.01,62297,21.31,74286.3,18.71,-15.67,-15.89,0,*4A
1537524236.26,62298,21.31,74286.0,18.71,-15.11,-15.39,0,*4F
1537524237.52,62299,21.38,74288.8,18.71,-15.49,-15.81,0,*40
1537524238.78,62300,21.31,74286.5,18.71,-15.21,-15.53,0,*40
1537524240.04,62301,21.31,74282.3,18.69,-14.83,-14.93,0,*4C
1537524241.29,62302,21.31,74284.5,18.71,-14.01,-13.93,0,*4B
1537524242.55,62303,21.31,74286.3,18.71,-13.33,-13.51,0,*42
1537524243.82,62304,21.31,74286.8,18.71,-13.01,-13.01,0,*41
1537524245.03,62305,21.31,74284.0,18.73,-13.43,-13.55,0,*45
1537524246.29,62306,21.31,74280.5,18.71,-14.05,-14.33,0,*46
1537524247.52,62307,21.31,74284.5,18.77,-13.37,-13.55,0,*40
1537524248.78,62308,21.31,74286.8,18.75,-14.33,-14.55,0,*49
1537524250.0,62309,21.31,74282.8,18.77,-14.69,-15.01,0,*45
1537524251.23,62310,21.31,74282.0,18.75,-14.61,-14.69,0,*48
1537524252.48,62311,21.31,74282.0,18.75,-14.75,-14.89,0,*42
1537524253.75,62312,21.31,74278.5,18.75,-14.05,-14.29,0,*4C
1537524255.01,62313,21.31,74282.8,18.75,-14.01,-14.15,0,*46
1537524256.27,62314,21.31,74282.5,18.75,-14.83,-15.07,0,*49
1537524257.55,62315,21.31,74280.0,18.75,-15.89,-16.31,0,*45
1537524258.79,62316,21.31,74286.0,18.77,-16.41,-16.69,0,*4E
1537524260.07,62317,21.31,74284.0,18.71,-16.09,-16.51,0,*4E
1537524261.3,62318,21.31,74286.3,18.69,-16.59,-17.17,0,*4E
1537524262.54,62319,21.31,74286.8,18.69,-17.49,-17.97,0,*47
1537524263.79,62320,21.31,74286.3,18.67,-17.07,-17.45,0,*46
1537524265.01,62321,21.31,74290.8,18.63,-16.37,-16.51,0,*45
1537524266.27,62322,21.31,74288.8,18.63,-15.89,-16.17,0,*42
1537524267.49,62323,21.31,74288.5,18.63,-16.23,-16.45,0,*47
1537524268.71,62324,21.31,74290.0,18.59,-15.01,-15.11,0,*48
1537524269.91,62325,21.31,74290.8,18.63,-15.75,-16.03,0,*43
1537524271.12,62326,21.31,74286.5,18.59,-15.75,-15.95,0,*45
1537524272.38,62327,21.31,74288.8,18.57,-15.43,-15.71,0,*45
1537524273.61,62328,21.31,74284.5,18.59,-16.41,-16.69,0,*4F
1537524274.83,62329,21.31,74286.3,18.55,-16.69,-16.93,0,*4D
1537524276.06,62330,21.31,74284.3,18.55,-17.07,-17.35,0,*41
1537524277.34,62331,21.31,74284.3,18.53,-16.65,-17.03,0,*46
1537524278.57,62332,21.31,74286.0,18.51,-16.17,-16.41,0,*45
1537524279.82,62333,21.31,74286.5,18.49,-15.99,-16.31,0,*4F
1537524281.07,62334,21.31,74288.3,18.51,-16.27,-16.69,0,*4A
1537524282.3,62335,21.31,74290.5,18.49,-16.55,-16.83,0,*43
1537524283.53,62336,21.31,74284.3,18.47,-15.53,-15.81,0,*4A
1537524284.81,62337,21.31,74288.8,18.49,-14.83,-15.21,0,*43
1537524286.07,62338,21.31,74284.8,18.49,-16.13,-16.55,0,*47
1537524287.29,62339,21.31,74284.8,18.47,-15.95,-16.27,0,*40
1537524288.49,62340,21.31,74286.8,18.47,-15.11,-15.25,0,*43
1537524289.77,62341,21.31,74288.0,18.49,-14.55,-14.79,0,*45
1537524291.0,62342,21.31,74284.8,18.47,-14.97,-15.25,0,*4E
1537524292.22,62343,21.31,74284.8,18.47,-14.55,-14.69,0,*48
1537524293.48,62344,21.31,74288.0,18.45,-14.37,-14.47,0,*45
1537524294.76,62345,21.31,74288.5,18.49,-13.97,-13.97,0,*4F
1537524296.01,62346,21.31,74284.0,18.51,-13.87,-14.05,0,*48
1537524297.27,62347,21.31,74286.5,18.49,-13.69,-13.97,0,*4C
1537524298.5,62348,21.31,74286.8,18.51,-14.19,-14.51,0,*47
1537524299.77,62349,21.31,74284.0,18.53,-15.01,-15.21,0,*4A
1537524300.99,62350,21.31,74288.8,18.53,-13.55,-13.73,0,*44
1537524302.24,62351,21.31,74288.5,18.53,-13.43,-13.61,0,*41
1537524303.5,62352,21.31,74290.0,18.53,-14.01,-14.23,0,*42
1537524304.71,62353,21.31,74286.5,18.55,-14.11,-14.29,0,*4E
1537524305.9,62354,21.31,74286.5,18.55,-13.43,-13.47,0,*46
1537524307.15,62355,21.31,74286.5,18.57,-14.43,-14.69,0,*49
1537524308.44,62356,21.31,74284.8,18.57,-14.55,-14.79,0,*4C
1537524309.66,62357,21.31,74290.5,18.57,-13.55,-13.69,0,*4C
1537524310.91,62358,21.31,74286.0,18.59,-13.29,-13.37,0,*4D
1537524312.11,62359,21.31,74288.3,18.59,-13.73,-13.93,0,*4D
1537524313.37,62360,21.31,74290.0,18.59,-14.47,-14.75,0,*48
1537524314.6,62361,21.31,74286.3,18.63,-13.73,-13.97,0,*4B
1537524315.8,62362,21.31,74290.5,18.63,-14.11,-14.19,0,*4A
1537524317.03,62363,21.31,74288.3,18.65,-13.43,-13.55,0,*42
1537524318.25,62364,21.31,74288.8,18.65,-13.11,-13.23,0,*43
1537524319.5,62365,21.31,74290.8,18.65,-13.29,-13.47,0,*4B
1537524320.77,62366,21.31,74288.3,18.65,-14.97,-15.01,0,*4E
1537524321.99,62367,21.31,74290.3,18.67,-14.29,-14.43,0,*4F
1537524323.24,62368,21.31,74284.3,18.67,-14.79,-14.83,0,*49
1537524324.49,62369,21.31,74286.3,18.63,-13.33,-13.29,0,*42
1537524325.71,62370,21.31,74284.5,18.65,-13.43,-13.55,0,*40
1537524326.92,62371,21.31,74286.5,18.69,-12.97,-13.07,0,*42
1537524328.15,62372,21.31,74288.0,18.69,-13.23,-13.37,0,*4C
1537524329.38,62373,21.31,74288.0,18.71,-13.19,-13.47,0,*4A
1537524330.61,62374,21.31,74286.5,18.73,-12.71,-12.89,0,*43
1537524331.84,62375,21.31,74286.3,18.73,-13.29,-13.43,0,*49
1537524333.04,62376,21.31,74288.0,18.73,-13.55,-13.69,0,*49
1537524334.32,62377,21.31,74288.8,18.75,-12.71,-12.83,0,*4C
1537524335.58,62378,21.31,74286.3,18.77,-12.57,-12.79,0,*40
1537524336.81,62379,21.31,74286.3,18.77,-13.29,-13.51,0,*42
1537524338.03,62380,21.31,74286.3,18.81,-13.07,-13.19,0,*4D
1537524339.26,62381,21.31,74288.8,18.79,-14.11,-14.37,0,*40
1537524340.53,62382,21.31,74288.5,18.79,-13.97,-14.19,0,*46
1537524341.78,62383,21.31,74288.3,18.79,-13.33,-13.51,0,*42
1537524343.02,62384,21.31,74286.3,18.81,-13.23,-13.61,0,*40
1537524344.25,62385,21.31,74290.0,18.79,-14.33,-14.65,0,*43
1537524345.5,62386,21.31,74286.3,18.81,-13.97,-14.65,0,*4E
1537524346.76,62387,21.31,74290.0,18.81,-14.05,-14.47,0,*43
1537524348.0,62388,21.31,74286.8,18.79,-14.11,-14.33,0,*4D
1537524349.26,62389,21.31,74286.5,18.79,-13.01,-13.11,0,*4D
1537524350.47,62390,21.31,74290.3,18.81,-12.93,-13.23,0,*49
1537524351.7,62391,21.31,74288.0,18.81,-13.23,-13.61,0,*44
1537524352.93,62392,21.31,74288.3,18.81,-13.65,-13.87,0,*4D
1537524354.18,62393,21.31,74286.5,18.81,-13.87,-14.05,0,*4D
1537524355.42,62394,21.31,74286.8,18.85,-12.61,-12.89,0,*45
1537524356.67,62395,21.31,74286.3,18.87,-12.65,-12.97,0,*4D
1537524357.93,62396,21.31,74288.3,18.87,-13.29,-13.55,0,*48
1537524359.2,62397,21.38,74290.5,18.87,-14.23,-14.55,0,*43
1537524360.44,62398,21.31,74286.5,18.89,-14.23,-14.51,0,*46
1537524361.73,62399,21.31,74288.5,18.91,-14.47,-14.83,0,*43
1537524362.97,62400,21.31,74286.5,18.85,-14.01,-14.29,0,*43
1537524364.2,62401,21.31,74290.3,18.87,-13.23,-13.69,0,*44
1537524365.41,62402,21.31,74288.0,18.89,-14.23,-14.69,0,*49
1537524366.7,62403,21.31,74284.3,18.87,-14.51,-15.01,0,*4C
1537524367.95,62404,21.31,74290.0,18.87,-13.37,-13.69,0,*44
1537524369.2,62405,21.31,74288.5,18.89,-13.37,-13.79,0,*4A
1537524370.48,62406,21.31,74290.5,18.91,-13.33,-13.61,0,*4D
1537524371.71,62407,21.31,74290.0,18.91,-13.93,-14.23,0,*47
1537524372.94,62408,21.31,74288.8,18.89,-14.23,-14.55,0,*4C
1537524374.16,62409,21.31,74288.5,18.89,-14.23,-14.65,0,*4E
1537524375.41,62410,21.31,74290.8,18.89,-14.97,-15.43,0,*4C
1537524376.63,62411,21.38,74294.0,18.89,-14.89,-15.29,0,*4E
1537524377.83,62412,21.38,74288.5,18.89,-15.11,-15.67,0,*47
1537524379.06,62413,21.38,74290.8,18.89,-13.79,-14.23,0,*4F
1537524380.32,62414,21.31,74290.0,18.87,-14.29,-14.55,0,*45
1537524381.6,62415,21.31,74290.0,18.87,-14.55,-14.75,0,*4D
1537524382.83,62416,21.31,74288.0,18.87,-13.23,-13.69,0,*42
1537524384.06,62417,21.31,74288.0,18.89,-13.55,-13.83,0,*48
1537524385.27,62418,21.31,74286.5,18.89,-14.23,-14.65,0,*4E
1537524386.53,62419,21.31,74288.3,18.89,-14.97,-15.43,0,*45
1537524387.76,62420,21.31,74286.5,18.89,-14.97,-15.53,0,*4E
1537524388.99,62421,21.31,74290.8,18.89,-14.75,-15.15,0,*41
1537524390.26,62422,21.31,74284.8,18.87,-14.15,-14.51,0,*4B
1537524391.52,62423,21.31,74286.3,18.87,-14.23,-14.55,0,*4B
1537524392.75,62424,21.31,74288.8,18.87,-14.37,-14.69,0,*46
1537524393.98,62425,21.31,74284.3,18.89,-13.29,-13.43,0,*4E
1537524395.2,62426,21.31,74288.3,18.91,-13.11,-13.47,0,*4B
1537524396.4,62427,21.31,74288.3,18.89,-13.11,-13.43,0,*47
1537524397.66,62428,21.38,74294.0,18.91,-12.11,-12.47,0,*45
1537524398.91,62429,21.31,74286.3,18.95,-13.37,-13.73,0,*43
1537524400.16,62430,21.31,74288.5,18.93,-14.75,-15.21,0,*4D
1537524401.4,62431,21.31,74288.3,18.95,-15.15,-15.53,0,*48
1537524402.65,62432,21.31,74290.0,18.93,-14.79,-15.35,0,*46
1537524403.86,62433,21.31,74288.0,18.93,-14.61,-15.07,0,*4F
1537524405.09,62434,21.31,74288.0,18.93,-14.05,-14.33,0,*4C
1537524406.34,62435,21.31,74288.0,18.93,-13.87,-14.05,0,*45
1537524407.57,62436,21.31,74288.0,18.93,-13.01,-13.43,0,*4D
1537524408.77,62437,21.31,74286.5,18.93,-13.19,-13.47,0,*41
1537524410.03,62438,21.31,74290.8,18.95,-13.51,-13.83,0,*4C
1537524411.26,62439,21.31,74290.8,18.95,-14.15,-14.37,0,*42
1537524412.5,62440,21.31,74284.8,18.97,-13.69,-13.97,0,*4F
1537524413.71,62441,21.31,74290.5,18.97,-14.11,-14.15,0,*4B
1537524414.93,62442,21.31,74288.8,18.97,-14.15,-14.37,0,*4C
1537524416.16,62443,21.31,74290.0,18.97,-16.89,-17.21,0,*4E
1537524417.39,62444,21.38,74290.5,18.95,-16.59,-16.75,0,*46
1537524418.62,62445,21.31,74288.8,18.95,-15.71,-15.99,0,*4F
1537524419.85,62446,21.38,74290.5,18.93,-14.65,-14.79,0,*41
1537524421.07,62447,21.31,74288.5,18.93,-14.29,-14.43,0,*41
1537524422.28,62448,21.31,74288.5,18.93,-14.19,-14.33,0,*4A
1537524423.48,62449,21.31,74286.3,18.93,-16.03,-16.37,0,*44
1537524424.76,62450,21.31,74288.8,18.91,-17.79,-18.01,0,*49
1537524426.04,62451,21.31,74284.8,18.91,-17.45,-17.63,0,*4C
1537524427.27,62452,21.31,74284.5,18.87,-15.71,-15.99,0,*4A
1537524428.51,62453,21.31,74286.5,18.85,-15.21,-15.49,0,*41
1537524429.74,62454,21.31,74290.5,18.85,-14.93,-15.15,0,*47
1537524431.03,62455,21.31,74286.0,18.87,-15.89,-16.17,0,*4F
1537524432.26,62456,21.31,74288.0,18.85,-17.35,-17.63,0,*49
1537524433.55,62457,21.31,74284.5,18.79,-17.03,-17.17,0,*4D
1537524434.8,62458,21.31,74286.0,18.81,-15.81,-15.85,0,*44
1537524436.06,62459,21.31,74284.8,18.79,-14.93,-15.25,0,*4A
1537524437.3,62460,21.31,74290.0,18.81,-15.67,-15.85,0,*47
1537524438.51,62461,21.31,74286.8,18.77,-14.15,-14.37,0,*43
1537524439.72,62462,21.31,74284.8,18.81,-14.37,-14.61,0,*4A
1537524440.94,62463,21.31,74290.0,18.81,-13.37,-13.47,0,*4F
1537524442.2,62464,21.31,74286.3,18.85,-12.83,-12.83,0,*4B
1537524443.49,62465,21.31,74290.5,18.87,-13.87,-14.01,0,*41
1537524444.72,62466,21.38,74292.3,18.89,-15.15,-15.39,0,*4B
1537524445.96,62467,21.31,74288.3,18.85,-15.71,-15.89,0,*4F
1537524447.22,62468,21.31,74288.8,18.87,-15.85,-15.99,0,*48
1537524448.46,62469,21.31,74288.0,18.85,-15.29,-15.57,0,*4F
1537524449.69,62470,21.31,74288.8,18.87,-15.53,-15.67,0,*4B
1537524450.93,62471,21.31,74288.3,18.85,-16.59,-17.07,0,*45
1537524452.19,62472,21.31,74284.3,18.85,-18.89,-19.31,0,*4E
1537524453.42,62473,21.31,74284.8,18.79,-19.07,-19.37,0,*4D
1537524454.68,62474,21.38,74288.0,18.75,-18.31,-18.69,0,*48
1537524455.93,62475,21.31,74286.3,18.75,-18.59,-19.03,0,*4A
1537524457.18,62476,21.31,74286.5,18.71,-18.73,-18.93,0,*4D
1537524458.41,62477,21.31,74284.0,18.67,-18.07,-18.35,0,*44
1537524459.64,62478,21.31,74284.5,18.65,-16.89,-16.97,0,*47
1537524460.91,62479,21.31,74280.5,18.65,-15.01,-15.01,0,*49
1537524462.13,62480,21.31,74286.5,18.67,-15.11,-15.39,0,*47
1537524463.34,62481,21.31,74286.0,18.67,-15.11,-15.29,0,*47
1537524464.57,62482,21.31,74286.8,18.67,-15.25,-15.39,0,*42
1537524465.83,62483,21.31,74284.5,18.69,-14.79,-14.79,0,*40
1537524467.06,62484,21.31,74284.8,18.69,-14.37,-14.51,0,*47
1537524468.27,62485,21.31,74286.0,18.73,-14.19,-14.33,0,*45
1537524469.53,62486,21.31,74284.8,18.75,-14.29,-14.55,0,*43
1537524470.77,62487,21.31,74284.8,18.73,-14.01,-14.19,0,*46
1537524471.99,62488,21.31,74282.5,18.77,-14.97,-15.15,0,*4F
1537524473.21,62489,21.31,74282.8,18.77,-15.15,-15.29,0,*4A
1537524474.47,62490,21.31,74280.5,18.77,-14.51,-14.55,0,*49
1537524475.68,62491,21.31,74280.8,18.77,-14.69,-14.65,0,*40
1537524476.94,62492,21.31,74276.5,18.79,-14.33,-14.47,0,*42
1537524478.22,62493,21.31,74280.8,18.79,-13.87,-13.87,0,*40
1537524479.45,62494,21.31,74282.0,18.79,-14.37,-14.37,0,*47
1537524480.7,62495,21.31,74280.5,18.81,-15.21,-15.35,0,*44
1537524481.91,62496,21.31,74280.5,18.81,-16.41,-16.55,0,*47
1537524483.12,62497,21.31,74282.0,18.81,-15.75,-15.99,0,*41
1537524484.38,62498,21.31,74282.0,18.81,-16.13,-16.27,0,*4B
1537524485.61,62499,21.31,74276.8,18.79,-14.11,-14.11,0,*4A
1537524486.86,62500,21.31,74280.5,18.81,-13.87,-13.87,0,*4C
1537524488.09,62501,21.31,74280.3,18.87,-13.43,-13.43,0,*4B
1537524489.32,62502,21.31,74278.5,18.87,-13.15,-13.23,0,*4D
1537524490.58,62503,21.31,74276.3,18.87,-13.69,-13.83,0,*4D
1537524491.83,62504,21.31,74276.8,18.91,-13.83,-13.93,0,*48
1537524493.08,62505,21.31,74278.3,18.91,-13.61,-13.73,0,*4B
1537524494.3,62506,21.31,74278.0,18.93,-13.33,-13.47,0,*4A
1537524495.53,62507,21.31,74276.0,18.95,-13.43,-13.55,0,*49